Weather History for Selinsgrove, PA

Change the Weather History Date:

Wednesday, September 11, 2013

  Actual Average (KIPT) Record (KIPT)
Temperature  
Mean Temperature 80 °F 65 °F  
Max Temperature 93 °F 75 °F 98 °F (1931)
Min Temperature 66 °F 55 °F 35 °F (1917)
Degree Days  
Heating Degree Days 0 2  
Month to date heating degree days 17  
Since 1 July heating degree days 31  
Cooling Degree Days 14 3  
Month to date cooling degree days 38  
Year to date cooling degree days 672  
Growing Degree Days 30 (Base 50)    
Moisture  
Dew Point 70 °F    
Average Humidity 88    
Maximum Humidity 100    
Minimum Humidity 56    
Precipitation  
Precipitation 0.28 in 0.14 in 1.69 in (1960)
Month to date precipitation 1.50  
Year to date precipitation 28.53  
Sea Level Pressure  
Sea Level Pressure 30.08 in    
Wind  
Wind Speed 1 mph (SSW)    
Max Wind Speed 10 mph    
Max Gust Speed 23 mph    
Visibility 3 miles    
Events Rain , Thunderstorm    
T = Trace of Precipitation, MM = Missing Value Source: NWS Daily Summary

Daily Weather History Graph

Daily Weather History Graph

Search for Another Location

Airport:

Trip Planner

Search our weather history database for the weather conditions in past years. The results will help you decide how hot, cold, wet, or windy it might be!

Date:

Astronomy

Sep. 11, 2013 Rise Set
Actual Time 6:44 AM EDT 7:22 PM EDT
Civil Twilight 6:16 AM EDT 7:50 PM EDT
Nautical Twilight 5:43 AM EDT 8:23 PM EDT
Astronomical Twilight 5:10 AM EDT 8:56 PM EDT
Moon 1:12 PM EDT (9/11) 11:14 PM EDT (9/11)
Length of Visible Light 13h 33m
Length of Day
12h 38m
Waxing Crescent, 38% of the Moon is Illuminated
Sep 11
Waxing Crescent
Sep 12
First Quarter
Sep 19
Full
Sep 26
Last Quarter
Oct 4
New

Hourly Weather History & Observations

Time (EDT) Temp. Heat Index Dew Point Humidity Pressure Visibility Wind Dir Wind Speed Gust Speed Precip Events Conditions
12:53 AM 71.1 °F - 69.1 °F 93% 30.12 in 4.0 mi Calm Calm - N/A   Partly Cloudy
1:26 AM 71.6 °F - 69.8 °F 94% 30.12 in 3.0 mi Calm Calm - N/A   Clear
1:41 AM 71.6 °F - 69.8 °F 94% 30.12 in 2.5 mi Calm Calm - N/A   Clear
1:53 AM 71.1 °F - 69.1 °F 93% 30.11 in 2.5 mi Calm Calm - N/A   Clear
2:01 AM 71.6 °F - 69.8 °F 94% 30.12 in 3.0 mi Calm Calm - N/A   Clear
2:13 AM 71.6 °F - 69.8 °F 94% 30.12 in 2.5 mi Calm Calm - N/A   Clear
2:53 AM 69.1 °F - 68.0 °F 96% 30.10 in 1.8 mi Calm Calm - N/A   Clear
3:15 AM 69.8 °F - 68.0 °F 94% 30.11 in 2.0 mi Calm Calm - N/A   Clear
3:53 AM 69.1 °F - 66.9 °F 93% 30.09 in 2.0 mi Calm Calm - N/A   Clear
4:10 AM 68.0 °F - 66.2 °F 94% 30.10 in 1.8 mi Calm Calm - N/A   Clear
4:18 AM 68.0 °F - 66.2 °F 94% 30.10 in 2.0 mi Calm Calm - N/A   Clear
4:31 AM 68.0 °F - 66.2 °F 94% 30.10 in 1.8 mi Calm Calm - N/A   Clear
4:38 AM 66.2 °F - 66.2 °F 100% 30.10 in 2.0 mi Calm Calm - N/A   Clear
4:53 AM 68.0 °F - 66.0 °F 93% 30.09 in 1.8 mi Calm Calm - N/A   Clear
5:53 AM 66.9 °F - 64.9 °F 93% 30.11 in 1.5 mi Calm Calm - N/A   Clear
6:42 AM 66.2 °F - 64.4 °F 94% 30.13 in 2.5 mi Calm Calm - N/A   Mostly Cloudy
6:49 AM 66.2 °F - 64.4 °F 94% 30.13 in 2.0 mi Calm Calm - N/A   Mostly Cloudy
6:53 AM 66.0 °F - 64.9 °F 96% 30.12 in 1.5 mi Calm Calm - N/A   Mostly Cloudy
7:01 AM 66.2 °F - 64.4 °F 94% 30.13 in 1.2 mi Calm Calm - N/A   Scattered Clouds
7:53 AM 70.0 °F - 68.0 °F 93% 30.14 in 1.5 mi Calm Calm - N/A   Clear
8:17 AM 73.4 °F - 71.6 °F 94% 30.14 in 2.0 mi Calm Calm - N/A   Clear
8:49 AM 75.2 °F - 71.6 °F 89% 30.14 in 3.0 mi Calm Calm - N/A   Haze
8:53 AM 75.9 °F - 72.0 °F 87% 30.13 in 3.0 mi Calm Calm - N/A   Clear
9:53 AM 82.0 °F 87.4 °F 73.0 °F 74% 30.13 in 4.0 mi Variable 3.5 mph - N/A   Haze
10:53 AM 84.9 °F 92.1 °F 73.9 °F 69% 30.12 in 5.0 mi Variable 3.5 mph - N/A   Haze
11:53 AM 88.0 °F 96.5 °F 73.9 °F 63% 30.10 in 5.0 mi Variable 3.5 mph - N/A   Haze
12:53 PM 91.0 °F 102.9 °F 75.9 °F 61% 30.08 in 5.0 mi Variable 5.8 mph - N/A   Haze
1:53 PM 91.9 °F 103.9 °F 75.9 °F 59% 30.04 in 5.0 mi SSE 6.9 mph - N/A   Haze
2:53 PM 93.0 °F 104.6 °F 75.0 °F 56% 30.01 in 6.0 mi South 4.6 mph - N/A   Haze
3:44 PM 87.8 °F 97.6 °F 75.2 °F 66% 30.00 in 6.0 mi SW 3.5 mph - N/A Thunderstorm Haze
4:53 PM 80.1 °F 82.3 °F 66.9 °F 64% 30.02 in 10.0 mi NW 10.4 mph 23.0 mph 0.00 in   Scattered Clouds
5:20 PM 80.6 °F 82.7 °F 66.2 °F 61% 30.02 in 10.0 mi NW 6.9 mph - N/A Thunderstorm Clear
5:53 PM 75.9 °F - 69.1 °F 79% 30.04 in 3.0 mi Variable 3.5 mph 16.1 mph 0.01 in Rain , Thunderstorm Thunderstorms and Rain
6:22 PM 75.2 °F - 71.6 °F 89% 30.05 in 2.5 mi Calm Calm - 0.05 in Rain , Thunderstorm Light Thunderstorms and Rain
6:30 PM 73.4 °F - 71.6 °F 94% 30.05 in 3.0 mi North 3.5 mph - 0.06 in Rain , Thunderstorm Thunderstorms and Rain
6:49 PM 73.4 °F - 71.6 °F 94% 30.08 in 1.8 mi SSE 4.6 mph - 0.12 in Rain , Thunderstorm Heavy Thunderstorms and Rain
6:53 PM 73.0 °F - 72.0 °F 96% 30.07 in 1.2 mi ESE 4.6 mph - 0.22 in Rain , Thunderstorm Heavy Thunderstorms and Rain
7:08 PM 73.4 °F - 71.6 °F 94% 30.07 in 2.5 mi Calm Calm - 0.03 in Rain , Thunderstorm Thunderstorms and Rain
7:17 PM 73.4 °F - 71.6 °F 94% 30.04 in 5.0 mi NNE 3.5 mph - 0.04 in Rain , Thunderstorm Light Thunderstorms and Rain
7:44 PM 73.4 °F - 71.6 °F 94% 30.03 in 3.0 mi Calm Calm - 0.04 in Rain Light Rain
7:53 PM 73.0 °F - 71.1 °F 93% 30.01 in 3.0 mi Calm Calm - 0.04 in Rain Light Rain
8:53 PM 73.0 °F - 71.1 °F 93% 30.06 in 4.0 mi Calm Calm - 0.00 in   Clear
9:53 PM 72.0 °F - 71.1 °F 97% 30.04 in 2.5 mi Calm Calm - N/A   Mostly Cloudy
10:53 PM 71.1 °F - 70.0 °F 96% 30.03 in 1.2 mi Calm Calm - 0.00 in   Clear
11:06 PM 69.8 °F - 69.8 °F 100% 30.03 in 0.8 mi Calm Calm - 0.01 in   Clear
11:23 PM 71.6 °F - 69.8 °F 94% 30.03 in 0.8 mi Calm Calm - 0.01 in   Scattered Clouds
11:27 PM 71.6 °F - 69.8 °F 94% 30.02 in 1.0 mi Calm Calm - 0.01 in   Mostly Cloudy
11:53 PM 71.1 °F - 70.0 °F 96% 30.00 in 2.0 mi Calm Calm - 0.01 in   Mostly Cloudy